﻿測定場所 (Monitoring sites),日付 (Measurement date),時間 (Measurement time),線量率 最大値 (max) μGy/h,線量率 最小値 (min) μGy/h,線量率 平均値 (average) μGy/h,
大田 (Ota),2021-11-28,23:01～24:00,0.0354,0.0294,0.0327,
大田 (Ota),2021-11-28,22:01～23:00,0.0353,0.0293,0.0325,
大田 (Ota),2021-11-28,21:01～22:00,0.0341,0.0306,0.0324,
大田 (Ota),2021-11-28,20:01～21:00,0.0350,0.0307,0.0325,
大田 (Ota),2021-11-28,19:01～20:00,0.0345,0.0304,0.0325,
大田 (Ota),2021-11-28,18:01～19:00,0.0350,0.0303,0.0324,
大田 (Ota),2021-11-28,17:01～18:00,0.0339,0.0300,0.0324,
大田 (Ota),2021-11-28,16:01～17:00,0.0359,0.0306,0.0326,
大田 (Ota),2021-11-28,15:01～16:00,0.0347,0.0309,0.0327,
大田 (Ota),2021-11-28,14:01～15:00,0.0346,0.0305,0.0325,
大田 (Ota),2021-11-28,13:01～14:00,0.0340,0.0310,0.0327,
大田 (Ota),2021-11-28,12:01～13:00,0.0342,0.0307,0.0324,
大田 (Ota),2021-11-28,11:01～12:00,0.0342,0.0305,0.0327,
大田 (Ota),2021-11-28,10:01～11:00,0.0362,0.0307,0.0330,
大田 (Ota),2021-11-28,09:01～10:00,0.0352,0.0309,0.0330,
大田 (Ota),2021-11-28,08:01～09:00,0.0360,0.0311,0.0329,
大田 (Ota),2021-11-28,07:01～08:00,0.0349,0.0305,0.0327,
大田 (Ota),2021-11-28,06:01～07:00,0.0349,0.0310,0.0327,
大田 (Ota),2021-11-28,05:01～06:00,0.0345,0.0308,0.0326,
大田 (Ota),2021-11-28,04:01～05:00,0.0351,0.0302,0.0325,
大田 (Ota),2021-11-28,03:01～04:00,0.0344,0.0307,0.0324,
大田 (Ota),2021-11-28,02:01～03:00,0.0347,0.0308,0.0325,
大田 (Ota),2021-11-28,01:01～02:00,0.0352,0.0302,0.0324,
大田 (Ota),2021-11-28,00:01～01:00,0.0345,0.0295,0.0324,
大田 (Ota),2021-11-27,23:01～24:00,0.0361,0.0300,0.0323,
大田 (Ota),2021-11-27,22:01～23:00,0.0340,0.0307,0.0323,
大田 (Ota),2021-11-27,21:01～22:00,0.0346,0.0300,0.0326,
大田 (Ota),2021-11-27,20:01～21:00,0.0347,0.0303,0.0324,
大田 (Ota),2021-11-27,19:01～20:00,0.0353,0.0308,0.0327,
大田 (Ota),2021-11-27,18:01～19:00,0.0347,0.0311,0.0327,
大田 (Ota),2021-11-27,17:01～18:00,0.0366,0.0307,0.0329,
大田 (Ota),2021-11-27,16:01～17:00,0.0345,0.0310,0.0326,
大田 (Ota),2021-11-27,15:01～16:00,0.0354,0.0311,0.0330,
大田 (Ota),2021-11-27,14:01～15:00,0.0350,0.0300,0.0328,
大田 (Ota),2021-11-27,13:01～14:00,0.0349,0.0312,0.0331,
大田 (Ota),2021-11-27,12:01～13:00,0.0349,0.0307,0.0329,
大田 (Ota),2021-11-27,11:01～12:00,0.0360,0.0312,0.0333,
大田 (Ota),2021-11-27,10:01～11:00,0.0365,0.0308,0.0331,
大田 (Ota),2021-11-27,09:01～10:00,0.0350,0.0314,0.0329,
大田 (Ota),2021-11-27,08:01～09:00,0.0352,0.0313,0.0331,
大田 (Ota),2021-11-27,07:01～08:00,0.0344,0.0309,0.0325,
大田 (Ota),2021-11-27,06:01～07:00,0.0357,0.0308,0.0328,
大田 (Ota),2021-11-27,05:01～06:00,0.0348,0.0303,0.0328,
大田 (Ota),2021-11-27,04:01～05:00,0.0350,0.0302,0.0326,
大田 (Ota),2021-11-27,03:01～04:00,0.0349,0.0308,0.0329,
大田 (Ota),2021-11-27,02:01～03:00,0.0342,0.0306,0.0329,
大田 (Ota),2021-11-27,01:01～02:00,0.0351,0.0313,0.0333,
大田 (Ota),2021-11-27,00:01～01:00,0.0359,0.0308,0.0338,
大田 (Ota),2021-11-26,23:01～24:00,0.0356,0.0317,0.0335,
大田 (Ota),2021-11-26,22:01～23:00,0.0360,0.0309,0.0334,
大田 (Ota),2021-11-26,21:01～22:00,0.0353,0.0310,0.0333,
大田 (Ota),2021-11-26,20:01～21:00,0.0358,0.0309,0.0333,
大田 (Ota),2021-11-26,19:01～20:00,0.0352,0.0311,0.0331,
大田 (Ota),2021-11-26,18:01～19:00,0.0343,0.0312,0.0329,
大田 (Ota),2021-11-26,17:01～18:00,0.0354,0.0306,0.0333,
大田 (Ota),2021-11-26,16:01～17:00,0.0359,0.0313,0.0331,
大田 (Ota),2021-11-26,15:01～16:00,0.0350,0.0309,0.0331,
大田 (Ota),2021-11-26,14:01～15:00,0.0346,0.0299,0.0322,
大田 (Ota),2021-11-26,13:01～14:00,0.0352,0.0305,0.0330,
大田 (Ota),2021-11-26,12:01～13:00,0.0356,0.0316,0.0331,
大田 (Ota),2021-11-26,11:01～12:00,0.0359,0.0302,0.0333,
大田 (Ota),2021-11-26,10:01～11:00,0.0350,0.0308,0.0332,
大田 (Ota),2021-11-26,09:01～10:00,0.0350,0.0311,0.0334,
大田 (Ota),2021-11-26,08:01～09:00,0.0359,0.0318,0.0337,
大田 (Ota),2021-11-26,07:01～08:00,0.0355,0.0316,0.0332,
大田 (Ota),2021-11-26,06:01～07:00,0.0357,0.0308,0.0332,
大田 (Ota),2021-11-26,05:01～06:00,0.0356,0.0300,0.0330,
大田 (Ota),2021-11-26,04:01～05:00,0.0356,0.0312,0.0331,
大田 (Ota),2021-11-26,03:01～04:00,0.0344,0.0306,0.0328,
大田 (Ota),2021-11-26,02:01～03:00,0.0350,0.0311,0.0330,
大田 (Ota),2021-11-26,01:01～02:00,0.0350,0.0306,0.0331,
大田 (Ota),2021-11-26,00:01～01:00,0.0347,0.0303,0.0326,
大田 (Ota),2021-11-25,23:01～24:00,0.0347,0.0309,0.0328,
大田 (Ota),2021-11-25,22:01～23:00,0.0349,0.0310,0.0330,
大田 (Ota),2021-11-25,21:01～22:00,0.0360,0.0304,0.0330,
大田 (Ota),2021-11-25,20:01～21:00,0.0348,0.0310,0.0328,
大田 (Ota),2021-11-25,19:01～20:00,0.0359,0.0312,0.0328,
大田 (Ota),2021-11-25,18:01～19:00,0.0352,0.0312,0.0329,
大田 (Ota),2021-11-25,17:01～18:00,0.0348,0.0311,0.0330,
大田 (Ota),2021-11-25,16:01～17:00,0.0354,0.0308,0.0330,
大田 (Ota),2021-11-25,15:01～16:00,0.0345,0.0310,0.0327,
大田 (Ota),2021-11-25,14:01～15:00,0.0346,0.0310,0.0327,
大田 (Ota),2021-11-25,13:01～14:00,0.0351,0.0311,0.0330,
大田 (Ota),2021-11-25,12:01～13:00,0.0352,0.0306,0.0327,
大田 (Ota),2021-11-25,11:01～12:00,0.0346,0.0301,0.0325,
大田 (Ota),2021-11-25,10:01～11:00,0.0355,0.0309,0.0330,
大田 (Ota),2021-11-25,09:01～10:00,0.0353,0.0309,0.0332,
大田 (Ota),2021-11-25,08:01～09:00,0.0347,0.0311,0.0330,
大田 (Ota),2021-11-25,07:01～08:00,0.0353,0.0304,0.0330,
大田 (Ota),2021-11-25,06:01～07:00,0.0357,0.0302,0.0329,
大田 (Ota),2021-11-25,05:01～06:00,0.0360,0.0312,0.0331,
大田 (Ota),2021-11-25,04:01～05:00,0.0347,0.0301,0.0330,
大田 (Ota),2021-11-25,03:01～04:00,0.0348,0.0313,0.0328,
大田 (Ota),2021-11-25,02:01～03:00,0.0347,0.0309,0.0326,
大田 (Ota),2021-11-25,01:01～02:00,0.0344,0.0306,0.0327,
大田 (Ota),2021-11-25,00:01～01:00,0.0349,0.0304,0.0327,
大田 (Ota),2021-11-24,23:01～24:00,0.0344,0.0311,0.0329,
大田 (Ota),2021-11-24,22:01～23:00,0.0343,0.0303,0.0325,
大田 (Ota),2021-11-24,21:01～22:00,0.0350,0.0301,0.0326,
大田 (Ota),2021-11-24,20:01～21:00,0.0346,0.0305,0.0323,
大田 (Ota),2021-11-24,19:01～20:00,0.0344,0.0295,0.0326,
大田 (Ota),2021-11-24,18:01～19:00,0.0346,0.0304,0.0328,
大田 (Ota),2021-11-24,17:01～18:00,0.0344,0.0306,0.0327,
大田 (Ota),2021-11-24,16:01～17:00,0.0353,0.0303,0.0328,
大田 (Ota),2021-11-24,15:01～16:00,0.0352,0.0305,0.0329,
大田 (Ota),2021-11-24,14:01～15:00,0.0348,0.0305,0.0328,
大田 (Ota),2021-11-24,13:01～14:00,0.0342,0.0302,0.0325,
大田 (Ota),2021-11-24,12:01～13:00,0.0355,0.0312,0.0330,
大田 (Ota),2021-11-24,11:01～12:00,0.0352,0.0309,0.0331,
大田 (Ota),2021-11-24,10:01～11:00,0.0358,0.0315,0.0333,
大田 (Ota),2021-11-24,09:01～10:00,0.0351,0.0307,0.0332,
大田 (Ota),2021-11-24,08:01～09:00,0.0346,0.0306,0.0328,
大田 (Ota),2021-11-24,07:01～08:00,0.0348,0.0310,0.0331,
大田 (Ota),2021-11-24,06:01～07:00,0.0346,0.0314,0.0328,
大田 (Ota),2021-11-24,05:01～06:00,0.0344,0.0308,0.0329,
大田 (Ota),2021-11-24,04:01～05:00,0.0354,0.0312,0.0329,
大田 (Ota),2021-11-24,03:01～04:00,0.0354,0.0307,0.0330,
大田 (Ota),2021-11-24,02:01～03:00,0.0351,0.0306,0.0328,
大田 (Ota),2021-11-24,01:01～02:00,0.0352,0.0310,0.0330,
大田 (Ota),2021-11-24,00:01～01:00,0.0350,0.0309,0.0330,
大田 (Ota),2021-11-23,23:01～24:00,0.0363,0.0317,0.0335,
大田 (Ota),2021-11-23,22:01～23:00,0.0357,0.0317,0.0337,
大田 (Ota),2021-11-23,21:01～22:00,0.0350,0.0316,0.0334,
大田 (Ota),2021-11-23,20:01～21:00,0.0354,0.0321,0.0336,
大田 (Ota),2021-11-23,19:01～20:00,0.0357,0.0319,0.0337,
大田 (Ota),2021-11-23,18:01～19:00,0.0360,0.0318,0.0338,
大田 (Ota),2021-11-23,17:01～18:00,0.0355,0.0318,0.0334,
大田 (Ota),2021-11-23,16:01～17:00,0.0357,0.0308,0.0333,
大田 (Ota),2021-11-23,15:01～16:00,0.0360,0.0316,0.0333,
大田 (Ota),2021-11-23,14:01～15:00,0.0353,0.0315,0.0333,
大田 (Ota),2021-11-23,13:01～14:00,0.0352,0.0312,0.0334,
大田 (Ota),2021-11-23,12:01～13:00,0.0353,0.0317,0.0333,
大田 (Ota),2021-11-23,11:01～12:00,0.0349,0.0310,0.0332,
大田 (Ota),2021-11-23,10:01～11:00,0.0359,0.0318,0.0337,
大田 (Ota),2021-11-23,09:01～10:00,0.0356,0.0312,0.0331,
大田 (Ota),2021-11-23,08:01～09:00,0.0351,0.0317,0.0332,
大田 (Ota),2021-11-23,07:01～08:00,0.0355,0.0315,0.0332,
大田 (Ota),2021-11-23,06:01～07:00,0.0352,0.0314,0.0330,
大田 (Ota),2021-11-23,05:01～06:00,0.0356,0.0310,0.0332,
大田 (Ota),2021-11-23,04:01～05:00,0.0356,0.0315,0.0334,
大田 (Ota),2021-11-23,03:01～04:00,0.0354,0.0314,0.0334,
大田 (Ota),2021-11-23,02:01～03:00,0.0356,0.0313,0.0334,
大田 (Ota),2021-11-23,01:01～02:00,0.0363,0.0323,0.0343,
大田 (Ota),2021-11-23,00:01～01:00,0.0429,0.0336,0.0373,
大田 (Ota),2021-11-22,23:01～24:00,0.0602,0.0389,0.0488,
大田 (Ota),2021-11-22,22:01～23:00,0.0830,0.0591,0.0708,
大田 (Ota),2021-11-22,21:01～22:00,0.0597,0.0323,0.0463,
大田 (Ota),2021-11-22,20:01～21:00,0.0371,0.0321,0.0351,
大田 (Ota),2021-11-22,19:01～20:00,0.0395,0.0354,0.0373,
大田 (Ota),2021-11-22,18:01～19:00,0.0399,0.0343,0.0370,
大田 (Ota),2021-11-22,17:01～18:00,0.0450,0.0376,0.0414,
大田 (Ota),2021-11-22,16:01～17:00,0.0477,0.0390,0.0446,
大田 (Ota),2021-11-22,15:01～16:00,0.0466,0.0357,0.0408,
大田 (Ota),2021-11-22,14:01～15:00,0.0373,0.0308,0.0342,
大田 (Ota),2021-11-22,13:01～14:00,0.0351,0.0312,0.0333,
大田 (Ota),2021-11-22,12:01～13:00,0.0361,0.0308,0.0338,
大田 (Ota),2021-11-22,11:01～12:00,0.0362,0.0314,0.0338,
大田 (Ota),2021-11-22,10:01～11:00,0.0349,0.0307,0.0329,
大田 (Ota),2021-11-22,09:01～10:00,0.0351,0.0317,0.0332,
大田 (Ota),2021-11-22,08:01～09:00,0.0357,0.0306,0.0334,
大田 (Ota),2021-11-22,07:01～08:00,0.0348,0.0308,0.0330,
大田 (Ota),2021-11-22,06:01～07:00,0.0353,0.0313,0.0333,
大田 (Ota),2021-11-22,05:01～06:00,0.0364,0.0318,0.0342,
大田 (Ota),2021-11-22,04:01～05:00,0.0396,0.0335,0.0362,
大田 (Ota),2021-11-22,03:01～04:00,0.0463,0.0349,0.0410,
大田 (Ota),2021-11-22,02:01～03:00,0.0508,0.0409,0.0450,
大田 (Ota),2021-11-22,01:01～02:00,0.0525,0.0447,0.0477,
大田 (Ota),2021-11-22,00:01～01:00,0.0531,0.0448,0.0491,
